Wind_Speed
15 13 13 14 15 15 14 12 11 11 11 10 10 9 9 10 10 9 9 9 11 12 13 14 15 15 16 17 18 20 20 21 21 21 21 22 22 22 23 23 23 24 24
16 16 15 15 16 16 15 14 13 12 12 11 10 10 10 11 11 11 10 11 12 13 14 15 16 16 16 17 17 18 19 20 20 20 21 22 23 23 24 25 26 27 28
18 18 17 17 17 17 16 15 14 14 13 12 10 10 10 11 11 12 12 13 14 15 15 16 17 17 17 17 18 18 18 18 19 19 20 21 23 24 25 26 28 28 29
18 18 18 18 17 17 16 15 15 15 15 13 11 10 10 11 12 13 14 13 13 14 15 16 17 18 18 18 19 20 20 21 21 22 22 23 25 26 26 27 28 28 28
21 20 19 18 17 17 17 16 15 16 15 14 12 12 11 12 12 13 14 14 14 13 13 13 15 16 17 17 19 20 21 22 23 23 23 24 25 25 25 25 26 27 27
24 24 23 22 21 19 18 17 16 16 15 14 14 13 12 13 13 13 13 14 14 14 14 15 16 17 17 18 19 21 22 23 24 25 26 26 27 27 27 28 29 29 30
26 27 28 28 27 25 21 18 17 16 16 15 15 15 14 13 13 12 13 13 13 12 12 13 14 15 16 17 18 19 21 22 23 24 25 25 26 27 28 29 30 31 32
27 27 27 28 29 27 23 20 18 18 17 16 16 16 15 14 13 12 12 12 11 9 9 11 13 15 16 17 19 20 21 22 22 22 23 24 25 26 28 29 30 31 32
28 27 27 28 28 26 24 21 20 19 18 17 18 18 17 16 15 14 14 14 12 12 13 16 19 20 22 23 25 26 26 25 25 25 25 25 27 28 29 30 31 33 34
28 27 28 28 28 26 24 22 21 20 19 19 19 20 20 20 19 18 18 18 17 17 17 19 21 23 24 25 25 26 27 27 27 27 27 27 28 28 29 30 31 32 34
28 27 29 29 28 27 24 22 21 20 21 21 21 21 23 23 23 22 21 22 21 20 20 21 23 24 24 23 22 21 22 23 24 25 26 27 28 29 29 30 30 30 31
30 28 29 31 30 28 25 24 23 21 21 22 23 23 24 25 26 25 24 24 25 24 23 23 24 25 24 21 18 17 18 19 21 23 24 26 28 29 30 30 30 30 30
32 30 30 32 31 30 28 26 25 23 22 23 24 25 26 28 28 28 27 27 27 27 26 25 26 26 26 22 19 18 19 20 22 24 25 28 30 31 32 33 33 33 32
33 31 32 33 33 32 31 30 28 26 25 24 24 26 28 29 30 30 31 30 28 27 27 27 28 28 27 24 22 21 22 24 26 28 30 32 35 36 37 37 36 36 35
35 33 33 35 35 35 34 33 31 30 29 27 26 27 28 29 30 30 31 31 29 28 28 29 29 30 29 27 25 25 27 28 30 32 34 36 38 39 38 37 37 36 37
36 36 34 35 36 37 36 36 34 33 32 30 29 28 28 29 29 29 30 31 30 30 30 30 30 31 31 29 29 29 30 31 33 35 36 38 38 37 35 34 34 34 36
39 38 37 36 36 37 37 37 37 36 35 33 31 29 29 30 30 30 30 30 31 31 30 30 31 33 32 31 31 31 32 34 36 37 38 38 37 36 35 35 36 36 38
40 40 39 37 37 38 37 37 37 38 37 35 32 31 31 31 31 31 31 31 31 31 31 31 32 33 33 32 32 32 34 37 38 38 39 39 38 37 38 39 40 41 42
39 40 41 39 39 38 38 37 37 38 38 36 34 32 32 33 33 33 32 31 31 31 31 31 33 33 33 33 33 35 37 38 39 40 40 40 40 41 42 43 44 45 46
40 40 41 41 41 40 38 37 37 38 38 37 35 33 33 34 34 34 33 33 32 32 32 33 33 34 34 35 37 39 40 40 41 42 42 42 42 44 46 47 49 50 52
42 41 40 42 42 42 40 39 39 39 38 37 35 34 34 34 35 36 35 34 33 33 34 34 35 36 37 39 41 42 43 43 44 45 45 44 45 47 49 51 53 55 56
45 44 41 41 44 44 43 42 41 40 38 36 35 35 34 34 36 37 36 35 35 36 36 37 38 39 40 42 44 46 47 46 47 48 47 47 49 50 53 55 57 60 61
46 45 43 41 44 46 45 44 43 41 38 35 35 35 35 35 36 37 37 37 38 39 39 40 42 43 43 45 47 48 48 48 48 49 49 51 52 55 57 60 62 65 66
46 45 43 42 44 45 45 44 43 41 37 36 36 36 35 35 35 36 38 39 41 43 43 44 45 46 47 48 49 50 50 51 51 48 48 51 54 57 60 63 66 68 70
46 45 43 43 44 45 45 43 42 40 37 36 36 36 36 36 36 37 39 41 43 44 45 46 47 48 49 51 51 51 51 53 53 53 52 54 56 58 61 65 68 70 72
47 44 43 43 44 45 43 42 41 39 37 37 37 37 38 38 38 39 40 42 44 46 47 48 48 49 51 52 52 53 54 54 55 56 58 59 60 62 64 66 69 71 72
Wind_Direction
258 259 258 255 254 256 258 263 265 270 276 279 272 258 251 252 250 248 247 251 259 265 268 268 267 268 268 270 271 272 271 270 270 270 271 273 274 276 276 277 279 281 283
256 257 256 258 260 261 262 263 265 269 271 273 267 254 251 250 247 248 250 253 258 261 262 263 264 267 269 272 273 273 273 272 272 271 272 273 274 276 277 279 281 282 283
253 255 255 255 258 261 262 263 266 268 269 267 260 252 253 252 249 250 253 254 257 259 262 264 266 269 272 273 274 273 272 272 273 273 274 275 276 276 278 280 281 282 283
249 253 256 258 257 259 259 262 265 267 267 264 257 253 253 254 253 254 256 256 257 259 261 264 267 269 272 273 274 274 275 274 274 274 275 277 278 278 279 281 283 283 284
253 257 262 265 262 259 257 259 262 264 264 263 259 252 250 254 256 258 258 258 258 260 263 267 270 271 273 275 277 278 279 280 280 279 279 279 279 280 281 283 285 287 287
258 264 268 268 266 261 257 257 260 261 258 258 257 252 251 253 256 258 259 259 260 262 266 269 272 274 276 278 280 280 281 281 282 281 281 280 281 282 283 283 283 284 284
256 259 263 267 267 263 257 253 254 255 252 252 252 252 254 254 255 259 259 258 259 264 271 275 279 283 286 286 286 285 285 283 282 282 282 281 282 282 283 282 282 282 282
258 261 264 266 268 265 260 254 250 249 248 247 247 249 253 255 255 255 254 252 251 255 265 275 282 286 288 288 286 284 283 282 281 281 282 283 283 283 284 284 284 283 282
258 262 263 263 263 262 261 258 254 252 249 247 246 247 249 250 250 248 248 248 249 258 270 280 287 290 291 290 286 282 280 279 280 282 284 285 286 286 286 286 285 284 281
253 259 259 255 254 256 257 258 258 256 254 252 249 247 248 248 248 248 250 251 255 263 273 282 290 296 299 298 293 287 281 278 279 282 285 286 287 288 290 290 289 286 282
248 253 253 248 247 249 252 255 259 258 256 254 253 250 250 250 250 251 253 256 259 265 274 283 290 297 302 303 301 295 288 284 283 283 285 287 288 289 291 292 292 291 288
246 248 248 245 244 246 248 250 255 259 259 257 254 253 252 253 253 254 256 258 261 266 273 281 288 296 300 302 305 302 297 292 289 287 287 287 288 289 289 289 289 289 288
247 246 245 242 242 244 247 249 253 257 261 261 259 257 256 256 256 256 257 259 261 266 273 281 288 294 296 295 297 297 295 292 290 289 290 290 291 291 291 290 288 287 285
249 247 244 240 239 242 246 249 253 258 261 263 262 260 258 257 259 260 259 260 262 266 272 280 286 290 292 289 288 289 290 291 291 292 293 294 294 295 294 292 289 286 284
248 248 246 243 241 242 245 248 252 257 260 262 264 264 261 260 261 262 263 263 263 266 272 279 283 287 289 286 284 284 287 291 292 294 294 295 295 296 294 291 288 285 283
247 247 247 246 245 246 248 250 253 256 258 260 263 265 265 265 265 264 264 264 264 266 270 275 280 285 287 284 281 281 284 289 291 293 294 296 296 296 294 292 289 286 284
248 247 248 248 248 249 251 254 256 257 258 260 264 267 268 268 267 264 262 262 263 265 268 272 278 283 284 282 279 280 284 288 291 293 295 296 296 294 292 290 289 287 286
247 247 248 248 249 250 252 254 256 258 259 261 264 266 267 267 265 262 261 262 262 264 267 273 279 282 282 280 279 282 286 289 291 293 295 294 293 291 289 288 287 286 284
246 247 248 248 248 250 253 255 256 258 260 261 262 263 263 264 262 259 259 261 263 265 269 276 281 282 281 280 283 287 289 290 292 293 293 292 290 289 287 286 285 283 283
246 246 246 247 248 250 252 256 258 259 260 261 261 259 260 262 261 257 258 261 264 269 273 279 283 284 283 284 287 289 291 291 292 293 292 290 288 287 286 285 284 284 285
246 247 245 245 247 249 251 254 257 259 260 261 262 259 261 262 259 257 258 261 266 272 276 280 283 285 286 288 290 292 292 293 292 292 290 287 286 286 287 287 287 287 287
245 247 246 244 245 247 250 253 257 260 262 263 262 260 261 261 259 258 260 263 268 273 277 281 283 285 286 289 291 294 294 293 293 293 290 288 288 289 289 289 290 290 290
244 247 247 243 243 246 249 252 256 259 262 262 260 259 260 261 260 259 261 266 271 275 279 282 284 285 287 289 291 292 292 292 292 291 290 290 291 292 292 292 293 293 293
243 245 246 244 244 246 248 251 254 257 258 258 258 259 260 262 262 262 264 268 273 277 280 283 285 287 287 289 291 292 291 291 290 286 285 286 288 290 292 293 293 293 293
241 242 243 243 244 245 247 250 253 255 258 258 258 259 260 262 264 265 268 272 275 279 282 284 285 287 288 291 292 291 291 291 290 288 287 287 288 289 290 291 291 292 292
239 240 240 241 244 246 247 250 254 257 259 260 260 261 262 263 265 268 271 274 277 280 282 284 286 288 290 291 291 291 292 292 291 291 290 291 291 291 291 292 292 293 292
Height
5857 5857 5857 5858 5859 5859 5859 5859 5858 5858 5857 5856 5856 5856 5856 5855 5855 5854 5854 5854 5854 5854 5853 5853 5852 5852 5852 5852 5852 5852 5852 5852 5852 5852 5852 5853 5853 5852 5852 5852 5851 5850 5849
5853 5853 5854 5854 5855 5855 5856 5856 5855 5855 5854 5854 5853 5853 5853 5853 5853 5852 5852 5851 5851 5851 5850 5850 5850 5849 5849 5849 5849 5850 5850 5850 5849 5849 5849 5849 5849 5849 5849 5848 5847 5846 5845
5850 5850 5850 5851 5851 5851 5852 5852 5852 5852 5852 5851 5850 5850 5850 5850 5850 5850 5850 5849 5848 5848 5847 5847 5847 5847 5846 5846 5846 5846 5847 5847 5847 5846 5846 5845 5845 5845 5844 5843 5842 5842 5841
5846 5846 5846 5847 5848 5848 5848 5848 5848 5849 5849 5848 5848 5847 5847 5847 5847 5847 5847 5847 5846 5845 5845 5844 5844 5844 5843 5843 5843 5843 5843 5843 5843 5842 5841 5841 5840 5839 5839 5838 5837 5836 5836
5843 5843 5843 5844 5844 5845 5844 5844 5845 5845 5845 5845 5845 5845 5845 5844 5844 5844 5844 5844 5843 5843 5842 5842 5842 5841 5840 5840 5840 5840 5839 5839 5838 5837 5836 5836 5835 5834 5833 5832 5831 5831 5830
5840 5840 5840 5840 5840 5841 5841 5841 5841 5842 5842 5842 5842 5842 5842 5842 5842 5841 5841 5840 5840 5840 5839 5839 5839 5839 5838 5837 5836 5836 5835 5834 5833 5832 5832 5830 5830 5829 5828 5827 5826 5826 5825
5836 5837 5837 5837 5836 5837 5837 5837 5838 5838 5838 5839 5839 5839 5839 5839 5839 5839 5838 5837 5836 5836 5837 5837 5837 5836 5835 5833 5832 5832 5830 5829 5828 5827 5826 5825 5824 5822 5822 5821 5820 5820 5819
5831 5832 5832 5832 5832 5833 5833 5833 5834 5834 5835 5835 5835 5836 5836 5836 5836 5835 5835 5834 5834 5834 5834 5834 5833 5832 5831 5830 5828 5827 5826 5825 5823 5822 5821 5819 5818 5817 5816 5815 5814 5813 5812
5827 5827 5827 5828 5828 5828 5829 5829 5830 5830 5831 5831 5831 5832 5832 5832 5832 5832 5832 5831 5831 5831 5831 5831 5830 5828 5827 5825 5823 5822 5820 5819 5818 5817 5816 5814 5813 5811 5810 5809 5807 5806 5805
5822 5823 5823 5823 5823 5824 5825 5825 5825 5826 5826 5827 5827 5828 5829 5829 5828 5828 5828 5828 5828 5827 5827 5826 5825 5823 5822 5819 5817 5815 5814 5812 5811 5811 5810 5808 5807 5805 5804 5802 5801 5799 5798
5817 5817 5817 5818 5818 5819 5820 5821 5821 5821 5822 5822 5823 5823 5824 5824 5824 5824 5824 5824 5824 5823 5822 5821 5820 5818 5816 5814 5811 5809 5807 5806 5805 5804 5803 5802 5801 5799 5798 5796 5794 5792 5791
5811 5812 5813 5813 5814 5815 5816 5816 5817 5817 5817 5818 5818 5818 5819 5819 5819 5819 5819 5819 5819 5818 5817 5816 5815 5813 5811 5809 5806 5804 5803 5801 5799 5798 5798 5796 5795 5793 5792 5790 5788 5787 5786
5806 5807 5807 5808 5809 5810 5811 5812 5812 5813 5813 5813 5813 5813 5813 5813 5814 5814 5814 5814 5813 5812 5812 5810 5809 5807 5805 5803 5801 5799 5798 5796 5795 5793 5792 5790 5789 5787 5785 5783 5782 5780 5779
5801 5802 5802 5803 5804 5805 5806 5807 5808 5808 5808 5808 5808 5808 5808 5808 5808 5808 5808 5808 5807 5806 5805 5804 5803 5801 5799 5798 5796 5794 5793 5791 5789 5787 5785 5784 5782 5780 5778 5775 5774 5772 5770
5795 5796 5796 5797 5798 5800 5801 5802 5802 5803 5803 5803 5803 5802 5802 5803 5803 5803 5802 5801 5801 5800 5799 5798 5797 5795 5793 5792 5790 5788 5787 5785 5783 5780 5778 5776 5774 5771 5768 5766 5764 5762 5761
5788 5789 5790 5791 5793 5794 5795 5796 5797 5797 5798 5798 5798 5797 5797 5797 5797 5797 5796 5795 5794 5793 5792 5791 5790 5789 5787 5785 5784 5781 5780 5778 5775 5773 5770 5768 5765 5762 5759 5757 5755 5753 5752
5781 5782 5783 5785 5786 5788 5789 5790 5790 5791 5791 5792 5792 5792 5792 5791 5791 5791 5790 5789 5788 5787 5786 5785 5783 5782 5780 5778 5776 5774 5772 5770 5767 5764 5762 5759 5756 5754 5751 5749 5747 5745 5743
5773 5775 5776 5777 5779 5781 5782 5783 5783 5784 5784 5785 5786 5786 5786 5785 5785 5784 5784 5783 5781 5780 5779 5778 5776 5774 5772 5770 5769 5766 5764 5762 5759 5756 5753 5750 5748 5745 5743 5741 5739 5737 5734
5765 5767 5769 5770 5772 5773 5774 5775 5776 5776 5778 5779 5780 5780 5779 5779 5778 5778 5777 5776 5775 5774 5773 5771 5769 5767 5765 5763 5761 5758 5756 5753 5750 5747 5744 5742 5739 5736 5734 5732 5729 5727 5724
5757 5759 5761 5763 5764 5765 5767 5768 5768 5769 5770 5772 5773 5773 5773 5772 5771 5771 5770 5769 5768 5767 5766 5764 5762 5759 5757 5755 5753 5750 5747 5744 5741 5738 5735 5732 5730 5726 5723 5721 5718 5715 5712
5748 5750 5753 5755 5756 5757 5759 5760 5761 5762 5763 5764 5765 5766 5765 5765 5764 5764 5763 5762 5761 5760 5758 5757 5755 5753 5750 5747 5744 5741 5738 5735 5732 5729 5726 5722 5719 5716 5712 5708 5705 5702 5698
5739 5741 5744 5746 5748 5749 5750 5751 5753 5754 5756 5757 5758 5758 5758 5757 5757 5757 5756 5755 5754 5752 5751 5749 5747 5745 5742 5739 5735 5732 5728 5726 5722 5718 5715 5711 5708 5704 5700 5695 5691 5687 5683
5729 5732 5735 5738 5739 5740 5742 5744 5745 5747 5748 5749 5749 5750 5750 5750 5750 5750 5749 5748 5746 5745 5743 5741 5739 5736 5734 5730 5727 5724 5719 5716 5713 5709 5704 5699 5694 5690 5686 5681 5676 5671 5666
5719 5723 5726 5729 5731 5732 5734 5736 5738 5739 5741 5741 5742 5742 5743 5743 5743 5742 5741 5740 5738 5736 5735 5732 5730 5727 5724 5721 5717 5713 5710 5706 5703 5701 5698 5691 5685 5679 5673 5667 5661 5655 5649
5707 5712 5717 5720 5722 5724 5726 5728 5730 5732 5733 5734 5734 5735 5735 5735 5735 5734 5733 5731 5729 5728 5725 5723 5720 5717 5713 5710 5706 5702 5698 5694 5690 5687 5685 5681 5675 5669 5662 5656 5648 5641 5634
5696 5702 5707 5710 5713 5716 5719 5721 5722 5724 5726 5726 5726 5727 5727 5727 5727 5725 5724 5722 5720 5718 5716 5713 5710 5706 5703 5699 5694 5690 5686 5682 5677 5672 5669 5665 5660 5654 5648 5641 5633 5624 5616